Location: Mentone
(34.5413°N, 85.5351°W)
Time: 01:12:26
(UTC-05:00)

Centaur AC-72 - Visible Passes

Search period start: 25 July 2016 00:00
Search period end: 04 August 2016 00:00
Orbit: 1098 x 35259 km, 19.6° (Epoch: 24 July)

Date Brightness Start Highest point End Pass type
(mag) Time Alt. Az. Time Alt. Az. Time Alt. Az.
26 Jul 9.3 15:40:27 10° W 17:03:58 24° W 19:53:35 10° W visible
27 Jul 7.0 12:20:41 10° W 14:07:24 60° SW 21:45:27 10° SW visible
30 Jul 9.2 15:23:04 10° W 16:47:12 24° W 19:41:40 10° W visible
31 Jul 7.0 12:04:40 10° W 13:49:38 60° SW 21:29:50 10° SW visible
03 Aug 9.1 15:05:48 10° W 16:30:27 25° W 19:29:31 10° W visible
